Flag for U.S.A. Weather past 2 weeks in Hartford, Connecticut, U.S.A.

Now
63 °F

Scattered clouds.


Feels Like: 63 °F
Forecast: 46 / 62 °F
Wind: 10 mph from Northwest

Location: Hartford-Brainard Airport

Current Time: Apr 28, 2015 at 3:33:37 PM

Latest Report: Apr 28, 2015 at 2:53 PM


Visibility: 10 mi

Pressure: 29.71 "Hg

Humidity: 29%

Dew point: 30 °F

Location of HartfordLocation

Historic Weather in Hartford — Graph

°F

Hartford temperature yesterday

Maximum temperature yesterday: 59 °F (at 2:53 PM)
Minimum temperature yesterday: 49 °F (at 4:53 AM)
Average temperature yesterday: 53 °F

Past Weeks' High & Low Weather Summary

 TemperatureHumidityPressure
High79 °F (Apr 18, 5:53 PM)97% (Apr 18, 6:53 AM)30.50 "Hg (Apr 18, 6:53 AM)
Low34 °F (Apr 25, 5:53 AM)15% (Apr 15, 2:53 PM)29.54 "Hg (Apr 22, 3:53 PM)
Average52 °F54%29.90 "Hg
* Reported Apr 13 1:53 PM — Apr 28 1:53 PM, Hartford, Weather by CustomWeather, © 2015

Note: Actual official high and low records may vary slightly from our data, if they occured in-between our weather recording intervals... More about our weather records

Advertising

Hartford weather history for previous 24 hours

 ConditionsComfort  
Time TempWeatherWind HumidityBarometerVisibility
1:53 PM
Tue, Apr 28
63 °FPartly sunny.10 mph34%29.72 "Hg10 mi
12:53 PM60 °FSunny.8 mph39%29.75 "Hg10 mi
11:53 AM58 °FPassing clouds.6 mph43%29.76 "Hg10 mi
10:53 AM56 °FScattered clouds.12 mph46%29.78 "Hg10 mi
9:53 AM54 °FPartly sunny.16 mph49%29.77 "Hg10 mi
8:53 AM53 °FPartly sunny.20 mph51%29.77 "Hg10 mi
7:53 AM50 °FSunny.13 mph54%29.77 "Hg10 mi
6:53 AM48 °FOvercast.7 mph59%29.75 "Hg10 mi
5:53 AM47 °FPassing clouds.7 mph61%29.73 "Hg10 mi
4:53 AM48 °FClear.7 mph56%29.70 "Hg10 mi
3:53 AM49 °FPassing clouds.7 mph57%29.69 "Hg10 mi
2:53 AM49 °FPassing clouds.7 mph59%29.68 "Hg10 mi
1:53 AM49 °FClear.6 mph61%29.67 "Hg10 mi
12:53 AM50 °FPassing clouds.8 mph63%29.67 "Hg10 mi
11:53 PM
Mon, Apr 27
51 °FPassing clouds.12 mph61%29.67 "Hg10 mi
10:53 PM52 °FOvercast.15 mph57%29.67 "Hg10 mi
9:53 PM53 °FOvercast.14 mph55%29.66 "Hg10 mi
8:53 PM53 °FOvercast.14 mph55%29.66 "Hg10 mi
7:53 PM54 °FOvercast.17 mph51%29.64 "Hg10 mi
6:53 PM56 °FOvercast.15 mph44%29.62 "Hg10 mi
5:53 PM57 °FOvercast.12 mph44%29.60 "Hg10 mi
4:53 PM58 °FOvercast.13 mph41%29.59 "Hg10 mi
3:53 PM58 °FOvercast.9 mph38%29.58 "Hg10 mi
Weather by CustomWeather, © 2015

See weather overviewHow to use our weather pages